Time,TemperatureF,DewpointF,PressureIn,WindDirection,WindDirectionDegrees,WindSpeedMPH,WindSpeedGustMPH,Humidity,HourlyPrecipIn,Conditions,Clouds,dailyrainin,SoftwareType,DateUTC
2013-02-03 00:05:00,36.0,34.7,29.88,WSW,250,0.0,0.0,95,0.00,,,0.00,Wunderground v.1.15,2013-02-03 08:05:00,
2013-02-03 00:11:00,36.2,34.9,29.88,WSW,250,0.0,0.0,95,0.00,,,0.00,Wunderground v.1.15,2013-02-03 08:11:00,
2013-02-03 00:17:00,36.0,34.7,29.88,WSW,250,0.0,0.0,95,0.00,,,0.00,Wunderground v.1.15,2013-02-03 08:17:00,
2013-02-03 00:23:00,36.2,34.9,29.88,WSW,250,0.0,0.0,95,0.00,,,0.00,Wunderground v.1.15,2013-02-03 08:23:00,
2013-02-03 00:29:00,36.0,34.7,29.88,WSW,250,0.0,0.0,95,0.00,,,0.00,Wunderground v.1.15,2013-02-03 08:29:00,
2013-02-03 00:35:00,36.0,35.0,29.88,WSW,250,0.0,0.0,96,0.00,,,0.00,Wunderground v.1.15,2013-02-03 08:35:00,
2013-02-03 00:41:00,36.0,35.0,29.88,WSW,250,0.0,0.0,96,0.00,,,0.00,Wunderground v.1.15,2013-02-03 08:41:00,
2013-02-03 00:47:00,35.9,34.6,29.88,WSW,250,0.0,0.0,95,0.00,,,0.00,Wunderground v.1.15,2013-02-03 08:47:00,
2013-02-03 00:53:00,35.6,34.6,29.88,WSW,250,0.0,0.0,96,0.00,,,0.00,Wunderground v.1.15,2013-02-03 08:53:00,
2013-02-03 00:59:00,35.5,34.5,29.88,WSW,250,0.0,0.0,96,0.00,,,0.00,Wunderground v.1.15,2013-02-03 08:59:00,
2013-02-03 01:05:00,35.8,34.8,29.88,WSW,250,0.0,0.0,96,0.00,,,0.00,Wunderground v.1.15,2013-02-03 09:05:00,
2013-02-03 01:11:00,35.5,34.5,29.88,WSW,250,0.0,0.0,96,0.00,,,0.00,Wunderground v.1.15,2013-02-03 09:11:00,
2013-02-03 01:17:00,35.2,33.9,29.88,WSW,250,0.0,0.0,95,0.00,,,0.00,Wunderground v.1.15,2013-02-03 09:17:00,
2013-02-03 01:23:00,34.9,33.6,29.88,WSW,250,0.0,0.0,95,0.00,,,0.00,Wunderground v.1.15,2013-02-03 09:23:00,
2013-02-03 01:29:00,34.7,33.7,29.88,WSW,250,0.0,0.0,96,0.00,,,0.00,Wunderground v.1.15,2013-02-03 09:29:00,
2013-02-03 01:35:00,34.9,33.9,29.88,WSW,250,0.0,0.0,96,0.00,,,0.00,Wunderground v.1.15,2013-02-03 09:35:00,
2013-02-03 01:41:00,34.9,33.9,29.89,WSW,250,0.0,0.0,96,0.00,,,0.00,Wunderground v.1.15,2013-02-03 09:41:00,
2013-02-03 01:47:00,34.7,33.7,29.89,WSW,250,0.0,0.0,96,0.00,,,0.00,Wunderground v.1.15,2013-02-03 09:47:00,
2013-02-03 01:53:00,34.6,33.6,29.88,WSW,250,0.0,0.0,96,0.00,,,0.00,Wunderground v.1.15,2013-02-03 09:53:00,
2013-02-03 01:59:00,34.3,33.3,29.89,WSW,250,0.0,0.0,96,0.00,,,0.00,Wunderground v.1.15,2013-02-03 09:59:00,
2013-02-03 02:05:00,34.4,33.4,29.89,WSW,250,0.0,0.0,96,0.00,,,0.00,Wunderground v.1.15,2013-02-03 10:05:00,
2013-02-03 02:11:00,34.9,34.1,29.89,WSW,250,0.0,0.0,97,0.00,,,0.00,Wunderground v.1.15,2013-02-03 10:11:00,
2013-02-03 02:17:00,35.3,34.5,29.89,WSW,250,0.0,0.0,97,0.00,,,0.00,Wunderground v.1.15,2013-02-03 10:17:00,
2013-02-03 02:23:00,35.9,35.1,29.88,WSW,250,0.0,0.0,97,0.00,,,0.00,Wunderground v.1.15,2013-02-03 10:23:00,
2013-02-03 02:29:00,36.2,35.4,29.88,WSW,250,0.0,0.0,97,0.00,,,0.00,Wunderground v.1.15,2013-02-03 10:29:00,
2013-02-03 02:35:00,36.6,35.8,29.88,WSW,250,0.0,0.0,97,0.00,,,0.00,Wunderground v.1.15,2013-02-03 10:35:00,
2013-02-03 02:41:00,37.2,36.4,29.89,WSW,250,0.0,0.0,97,0.00,,,0.00,Wunderground v.1.15,2013-02-03 10:41:00,
2013-02-03 02:47:00,38.2,37.7,29.89,WSW,250,0.0,0.0,98,0.00,,,0.00,Wunderground v.1.15,2013-02-03 10:47:00,
2013-02-03 02:53:00,39.1,38.8,29.89,WSW,250,0.0,0.0,99,0.00,,,0.00,Wunderground v.1.15,2013-02-03 10:53:00,
2013-02-03 02:59:00,39.5,39.2,29.89,WSW,250,0.0,0.0,99,0.00,,,0.00,Wunderground v.1.15,2013-02-03 10:59:00,
2013-02-03 03:05:00,39.8,39.5,29.88,WSW,250,0.0,0.0,99,0.00,,,0.00,Wunderground v.1.15,2013-02-03 11:05:00,
2013-02-03 03:11:00,40.1,39.6,29.88,WSW,250,0.0,0.0,98,0.00,,,0.00,Wunderground v.1.15,2013-02-03 11:11:00,
2013-02-03 03:17:00,40.2,39.7,29.88,WSW,250,0.0,0.0,98,0.00,,,0.00,Wunderground v.1.15,2013-02-03 11:17:00,
2013-02-03 03:23:00,40.5,40.0,29.88,WSW,250,0.0,0.0,98,0.00,,,0.00,Wunderground v.1.15,2013-02-03 11:23:00,
2013-02-03 03:29:00,40.8,40.3,29.88,WSW,250,0.0,0.0,98,0.00,,,0.00,Wunderground v.1.15,2013-02-03 11:29:00,
2013-02-03 03:35:00,40.9,40.4,29.87,WSW,250,0.0,0.0,98,0.00,,,0.00,Wunderground v.1.15,2013-02-03 11:35:00,
2013-02-03 03:41:00,41.1,40.6,29.87,WSW,250,0.0,0.0,98,0.00,,,0.00,Wunderground v.1.15,2013-02-03 11:41:00,
2013-02-03 03:47:00,41.2,40.7,29.87,WSW,250,0.0,0.0,98,0.00,,,0.00,Wunderground v.1.15,2013-02-03 11:47:00,
2013-02-03 03:53:00,41.5,41.2,29.87,WSW,250,0.0,0.0,99,0.00,,,0.00,Wunderground v.1.15,2013-02-03 11:53:00,
2013-02-03 03:59:00,41.6,41.3,29.87,WSW,250,0.0,0.0,99,0.00,,,0.00,Wunderground v.1.15,2013-02-03 11:59:00,
2013-02-03 04:05:00,41.8,41.5,29.87,WSW,250,0.0,0.0,99,0.00,,,0.00,Wunderground v.1.15,2013-02-03 12:05:00,
2013-02-03 04:11:00,41.9,41.6,29.87,WSW,250,0.0,0.0,99,0.00,,,0.00,Wunderground v.1.15,2013-02-03 12:11:00,
2013-02-03 04:17:00,41.9,41.6,29.87,WSW,250,0.0,0.0,99,0.00,,,0.00,Wunderground v.1.15,2013-02-03 12:17:00,
2013-02-03 04:23:00,42.1,41.8,29.87,WSW,250,0.0,0.0,99,0.00,,,0.00,Wunderground v.1.15,2013-02-03 12:23:00,
2013-02-03 04:29:00,42.2,41.9,29.87,WSW,250,0.0,0.0,99,0.00,,,0.00,Wunderground v.1.15,2013-02-03 12:29:00,
2013-02-03 04:35:00,42.3,42.0,29.87,WSW,250,0.0,0.0,99,0.00,,,0.00,Wunderground v.1.15,2013-02-03 12:35:00,
2013-02-03 04:41:00,42.5,42.2,29.86,WSW,250,0.0,0.0,99,0.00,,,0.00,Wunderground v.1.15,2013-02-03 12:41:00,
2013-02-03 04:47:00,42.8,42.5,29.86,WSW,250,0.0,0.0,99,0.00,,,0.00,Wunderground v.1.15,2013-02-03 12:47:00,
2013-02-03 04:53:00,42.8,42.5,29.86,WSW,250,0.0,0.0,99,0.00,,,0.00,Wunderground v.1.15,2013-02-03 12:53:00,
2013-02-03 04:59:00,42.9,42.6,29.86,WSW,250,0.0,0.0,99,0.00,,,0.00,Wunderground v.1.15,2013-02-03 12:59:00,
2013-02-03 05:05:00,43.1,42.8,29.86,WSW,250,0.0,0.0,99,0.00,,,0.00,Wunderground v.1.15,2013-02-03 13:05:00,
2013-02-03 05:11:00,43.1,42.8,29.86,WSW,250,0.0,0.0,99,0.00,,,0.00,Wunderground v.1.15,2013-02-03 13:11:00,
2013-02-03 05:17:00,43.1,42.8,29.86,WSW,250,0.0,0.0,99,0.00,,,0.00,Wunderground v.1.15,2013-02-03 13:17:00,
2013-02-03 05:23:00,43.2,42.9,29.86,WSW,250,0.0,0.0,99,0.00,,,0.01,Wunderground v.1.15,2013-02-03 13:23:00,
2013-02-03 05:29:00,43.3,43.0,29.86,WSW,250,0.0,0.0,99,0.00,,,0.01,Wunderground v.1.15,2013-02-03 13:29:00,
2013-02-03 05:35:00,43.5,43.2,29.87,WSW,250,0.0,0.0,99,0.00,,,0.01,Wunderground v.1.15,2013-02-03 13:35:00,
2013-02-03 05:41:00,43.6,43.3,29.87,WSW,250,0.0,1.0,99,0.00,,,0.01,Wunderground v.1.15,2013-02-03 13:41:00,
2013-02-03 05:47:00,44.2,43.9,29.87,SW,223,1.0,1.0,99,0.00,,,0.01,Wunderground v.1.15,2013-02-03 13:47:00,
2013-02-03 05:53:00,44.5,44.2,29.87,SW,223,1.0,2.0,99,0.00,,,0.01,Wunderground v.1.15,2013-02-03 13:53:00,
2013-02-03 05:59:00,44.5,44.2,29.86,SW,223,1.0,1.0,99,0.00,,,0.01,Wunderground v.1.15,2013-02-03 13:59:00,
2013-02-03 06:05:00,44.5,44.2,29.86,West,272,0.0,2.0,99,0.00,,,0.01,Wunderground v.1.15,2013-02-03 14:05:00,
2013-02-03 06:11:00,44.5,44.2,29.86,West,272,0.0,0.0,99,0.00,,,0.01,Wunderground v.1.15,2013-02-03 14:11:00,
2013-02-03 06:17:00,44.5,44.2,29.86,West,272,0.0,0.0,99,0.00,,,0.01,Wunderground v.1.15,2013-02-03 14:17:00,
2013-02-03 06:23:00,44.6,44.3,29.86,West,272,0.0,0.0,99,0.00,,,0.01,Wunderground v.1.15,2013-02-03 14:23:00,
2013-02-03 06:29:00,44.6,44.3,29.86,West,272,0.0,0.0,99,0.00,,,0.01,Wunderground v.1.15,2013-02-03 14:29:00,
2013-02-03 06:35:00,44.6,44.3,29.86,West,272,0.0,0.0,99,0.00,,,0.01,Wunderground v.1.15,2013-02-03 14:35:00,
2013-02-03 06:41:00,44.5,44.2,29.86,West,273,0.0,0.0,99,0.00,,,0.01,Wunderground v.1.15,2013-02-03 14:41:00,
2013-02-03 06:47:00,44.5,44.2,29.86,West,272,0.0,0.0,99,0.00,,,0.01,Wunderground v.1.15,2013-02-03 14:47:00,
2013-02-03 06:53:00,44.5,44.2,29.86,West,272,0.0,0.0,99,0.00,,,0.01,Wunderground v.1.15,2013-02-03 14:53:00,
2013-02-03 06:59:00,44.5,44.2,29.87,West,272,0.0,0.0,99,0.00,,,0.01,Wunderground v.1.15,2013-02-03 14:59:00,
2013-02-03 07:05:00,44.5,44.2,29.87,West,272,0.0,0.0,99,0.00,,,0.01,Wunderground v.1.15,2013-02-03 15:05:00,
2013-02-03 07:11:00,44.5,44.2,29.87,West,272,0.0,0.0,99,0.00,,,0.01,Wunderground v.1.15,2013-02-03 15:11:00,
2013-02-03 07:17:00,44.5,44.2,29.88,West,272,0.0,0.0,99,0.00,,,0.01,Wunderground v.1.15,2013-02-03 15:17:00,
2013-02-03 07:23:00,44.5,44.2,29.88,West,272,0.0,0.0,99,0.00,,,0.01,Wunderground v.1.15,2013-02-03 15:23:00,
2013-02-03 07:29:00,44.5,44.2,29.88,West,272,0.0,0.0,99,0.00,,,0.01,Wunderground v.1.15,2013-02-03 15:29:00,
2013-02-03 07:35:00,44.6,44.3,29.88,West,272,0.0,0.0,99,0.00,,,0.01,Wunderground v.1.15,2013-02-03 15:35:00,
2013-02-03 07:41:00,44.6,44.3,29.88,West,272,0.0,0.0,99,0.00,,,0.01,Wunderground v.1.15,2013-02-03 15:41:00,
2013-02-03 07:47:00,44.8,44.5,29.88,West,272,0.0,0.0,99,0.00,,,0.01,Wunderground v.1.15,2013-02-03 15:47:00,
2013-02-03 07:53:00,44.8,44.5,29.88,West,272,0.0,0.0,99,0.00,,,0.01,Wunderground v.1.15,2013-02-03 15:53:00,
2013-02-03 07:59:00,44.9,44.6,29.88,West,272,0.0,0.0,99,0.00,,,0.01,Wunderground v.1.15,2013-02-03 15:59:00,
2013-02-03 08:05:00,44.9,44.6,29.89,West,272,0.0,0.0,99,0.00,,,0.01,Wunderground v.1.15,2013-02-03 16:05:00,
2013-02-03 08:11:00,45.1,44.8,29.89,West,272,0.0,0.0,99,0.00,,,0.01,Wunderground v.1.15,2013-02-03 16:11:00,
2013-02-03 08:17:00,45.2,44.9,29.89,West,272,0.0,0.0,99,0.00,,,0.01,Wunderground v.1.15,2013-02-03 16:17:00,
2013-02-03 08:23:00,45.4,45.1,29.89,West,272,0.0,0.0,99,0.00,,,0.01,Wunderground v.1.15,2013-02-03 16:23:00,
2013-02-03 08:29:00,45.5,45.2,29.89,West,272,0.0,0.0,99,0.00,,,0.01,Wunderground v.1.15,2013-02-03 16:29:00,
2013-02-03 08:35:00,45.7,45.4,29.89,West,272,0.0,0.0,99,0.00,,,0.01,Wunderground v.1.15,2013-02-03 16:35:00,
2013-02-03 08:41:00,45.8,45.5,29.89,West,273,0.0,0.0,99,0.00,,,0.01,Wunderground v.1.15,2013-02-03 16:41:00,
2013-02-03 08:47:00,46.0,45.7,29.89,West,272,0.0,0.0,99,0.00,,,0.01,Wunderground v.1.15,2013-02-03 16:47:00,
2013-02-03 08:53:00,46.2,45.9,29.89,WNW,292,0.0,4.0,99,0.00,,,0.01,Wunderground v.1.15,2013-02-03 16:53:00,
2013-02-03 08:59:00,46.1,45.8,29.89,WNW,292,1.0,2.0,99,0.00,,,0.01,Wunderground v.1.15,2013-02-03 16:59:00,
2013-02-03 09:05:00,46.1,45.8,29.89,NW,308,2.0,2.0,99,0.00,,,0.01,Wunderground v.1.15,2013-02-03 17:05:00,
2013-02-03 09:11:00,46.1,45.8,29.89,WSW,252,2.0,3.0,99,0.00,,,0.01,Wunderground v.1.15,2013-02-03 17:11:00,
2013-02-03 09:17:00,46.1,45.8,29.89,NW,311,2.0,3.0,99,0.00,,,0.01,Wunderground v.1.15,2013-02-03 17:17:00,
2013-02-03 09:23:00,46.2,45.9,29.89,WNW,287,2.0,3.0,99,0.00,,,0.01,Wunderground v.1.15,2013-02-03 17:23:00,
2013-02-03 09:29:00,46.2,45.9,29.90,West,279,2.0,2.0,99,0.00,,,0.01,Wunderground v.1.15,2013-02-03 17:29:00,
2013-02-03 09:35:00,46.5,46.2,29.90,West,279,1.0,2.0,99,0.00,,,0.01,Wunderground v.1.15,2013-02-03 17:35:00,
2013-02-03 09:41:00,46.7,46.4,29.90,WNW,296,1.0,4.0,99,0.00,,,0.01,Wunderground v.1.15,2013-02-03 17:41:00,
2013-02-03 09:47:00,46.7,46.4,29.90,West,278,1.0,3.0,99,0.00,,,0.01,Wunderground v.1.15,2013-02-03 17:47:00,
2013-02-03 09:53:00,47.0,46.7,29.90,West,278,1.0,3.0,99,0.00,,,0.01,Wunderground v.1.15,2013-02-03 17:53:00,
2013-02-03 09:59:00,47.0,46.5,29.90,WNW,294,2.0,4.0,98,0.00,,,0.01,Wunderground v.1.15,2013-02-03 17:59:00,
2013-02-03 10:05:00,47.1,46.3,29.91,WNW,294,2.0,4.0,97,0.00,,,0.01,Wunderground v.1.15,2013-02-03 18:05:00,
2013-02-03 10:11:00,47.4,46.3,29.90,WNW,289,1.0,3.0,96,0.00,,,0.01,Wunderground v.1.15,2013-02-03 18:11:00,
2013-02-03 10:17:00,47.3,45.7,29.90,WNW,286,2.0,2.0,94,0.00,,,0.01,Wunderground v.1.15,2013-02-03 18:17:00,
2013-02-03 10:23:00,47.6,46.0,29.90,WNW,286,1.0,2.0,94,0.00,,,0.01,Wunderground v.1.15,2013-02-03 18:23:00,
2013-02-03 10:29:00,48.2,46.3,29.89,WNW,291,0.0,0.0,93,0.00,,,0.01,Wunderground v.1.15,2013-02-03 18:29:00,
2013-02-03 10:35:00,48.6,46.4,29.89,WNW,291,0.0,1.0,92,0.00,,,0.01,Wunderground v.1.15,2013-02-03 18:35:00,
2013-02-03 10:41:00,49.2,46.4,29.89,WNW,291,0.0,0.0,90,0.00,,,0.01,Wunderground v.1.15,2013-02-03 18:41:00,
2013-02-03 10:47:00,49.4,46.3,29.89,WNW,295,0.0,0.0,89,0.00,,,0.01,Wunderground v.1.15,2013-02-03 18:47:00,
2013-02-03 10:53:00,49.6,45.9,29.88,WNW,295,0.0,0.0,87,0.00,,,0.01,Wunderground v.1.15,2013-02-03 18:53:00,
2013-02-03 10:59:00,49.8,45.5,29.88,NNE,32,1.0,3.0,85,0.00,,,0.01,Wunderground v.1.15,2013-02-03 18:59:00,
2013-02-03 11:05:00,50.2,45.9,29.88,ENE,65,1.0,3.0,85,0.00,,,0.01,Wunderground v.1.15,2013-02-03 19:05:00,
2013-02-03 11:11:00,51.4,46.1,29.87,East,86,0.0,1.0,82,0.00,,,0.01,Wunderground v.1.15,2013-02-03 19:11:00,
2013-02-03 11:17:00,52.5,46.5,29.87,ENE,78,0.0,0.0,80,0.00,,,0.01,Wunderground v.1.15,2013-02-03 19:17:00,
2013-02-03 11:23:00,53.1,46.1,29.87,East,79,0.0,0.0,77,0.00,,,0.01,Wunderground v.1.15,2013-02-03 19:23:00,
2013-02-03 11:29:00,54.4,47.3,29.87,East,80,0.0,0.0,77,0.00,,,0.01,Wunderground v.1.15,2013-02-03 19:29:00,
2013-02-03 11:35:00,55.1,46.6,29.86,NE,51,0.0,0.0,73,0.00,,,0.01,Wunderground v.1.15,2013-02-03 19:35:00,
2013-02-03 11:41:00,55.4,46.5,29.87,West,263,0.0,4.0,72,0.00,,,0.01,Wunderground v.1.15,2013-02-03 19:41:00,
2013-02-03 11:47:00,54.4,47.0,29.86,WSW,253,2.0,2.0,76,0.00,,,0.01,Wunderground v.1.15,2013-02-03 19:47:00,
2013-02-03 11:53:00,54.1,46.3,29.86,WNW,284,2.0,3.0,75,0.00,,,0.01,Wunderground v.1.15,2013-02-03 19:53:00,
2013-02-03 11:59:00,54.7,46.9,29.85,West,268,1.0,1.0,75,0.00,,,0.01,Wunderground v.1.15,2013-02-03 19:59:00,
2013-02-03 12:05:00,55.4,46.9,29.85,NNW,336,0.0,1.0,73,0.00,,,0.01,Wunderground v.1.15,2013-02-03 20:05:00,
2013-02-03 12:11:00,56.2,48.4,29.85,NW,304,1.0,4.0,75,0.00,,,0.01,Wunderground v.1.15,2013-02-03 20:11:00,
2013-02-03 12:17:00,56.7,47.8,29.84,WNW,294,1.0,1.0,72,0.00,,,0.01,Wunderground v.1.15,2013-02-03 20:17:00,
2013-02-03 12:23:00,56.6,48.0,29.84,West,261,1.0,1.0,73,0.00,,,0.01,Wunderground v.1.15,2013-02-03 20:23:00,
2013-02-03 12:29:00,56.5,47.2,29.84,West,278,2.0,2.0,71,0.00,,,0.01,Wunderground v.1.15,2013-02-03 20:29:00,
2013-02-03 12:35:00,56.7,47.4,29.84,WNW,289,2.0,2.0,71,0.00,,,0.01,Wunderground v.1.15,2013-02-03 20:35:00,
2013-02-03 12:41:00,57.0,47.7,29.84,West,277,2.0,3.0,71,0.00,,,0.01,Wunderground v.1.15,2013-02-03 20:41:00,
2013-02-03 12:47:00,57.5,47.4,29.83,West,272,4.0,5.0,69,0.00,,,0.01,Wunderground v.1.15,2013-02-03 20:47:00,
2013-02-03 12:53:00,58.0,47.9,29.83,NNW,331,3.0,6.0,69,0.00,,,0.01,Wunderground v.1.15,2013-02-03 20:53:00,
2013-02-03 12:59:00,58.9,48.4,29.84,NW,310,2.0,6.0,68,0.00,,,0.01,Wunderground v.1.15,2013-02-03 20:59:00,
2013-02-03 13:05:00,59.0,48.1,29.83,WNW,298,3.0,6.0,67,0.00,,,0.01,Wunderground v.1.15,2013-02-03 21:05:00,
2013-02-03 13:11:00,58.7,47.8,29.83,NW,311,4.0,6.0,67,0.00,,,0.01,Wunderground v.1.15,2013-02-03 21:11:00,
2013-02-03 13:17:00,59.6,48.6,29.83,NNW,334,3.0,3.0,67,0.00,,,0.01,Wunderground v.1.15,2013-02-03 21:17:00,
2013-02-03 13:23:00,59.6,47.8,29.82,NE,46,2.0,5.0,65,0.00,,,0.01,Wunderground v.1.15,2013-02-03 21:23:00,
2013-02-03 13:29:00,59.5,48.5,29.82,West,280,3.0,7.0,67,0.00,,,0.01,Wunderground v.1.15,2013-02-03 21:29:00,
2013-02-03 13:35:00,59.0,47.7,29.82,WNW,290,4.0,8.0,66,0.00,,,0.01,Wunderground v.1.15,2013-02-03 21:35:00,
2013-02-03 13:41:00,59.5,47.7,29.81,WNW,286,3.0,5.0,65,0.00,,,0.01,Wunderground v.1.15,2013-02-03 21:41:00,
2013-02-03 13:47:00,60.5,47.4,29.81,West,271,2.0,2.0,62,0.00,,,0.01,Wunderground v.1.15,2013-02-03 21:47:00,
2013-02-03 13:53:00,60.2,47.6,29.81,West,276,3.0,10.0,63,0.00,,,0.01,Wunderground v.1.15,2013-02-03 21:53:00,
2013-02-03 13:59:00,59.9,47.7,29.80,WNW,302,4.0,6.0,64,0.00,,,0.01,Wunderground v.1.15,2013-02-03 21:59:00,
2013-02-03 14:05:00,60.5,47.4,29.80,WNW,297,2.0,6.0,62,0.00,,,0.01,Wunderground v.1.15,2013-02-03 22:05:00,
2013-02-03 14:11:00,61.2,47.6,29.80,NW,312,1.0,3.0,61,0.00,,,0.01,Wunderground v.1.15,2013-02-03 22:11:00,
2013-02-03 14:17:00,62.1,47.1,29.80,West,276,1.0,3.0,58,0.00,,,0.01,Wunderground v.1.15,2013-02-03 22:17:00,
2013-02-03 14:23:00,61.5,47.9,29.80,WSW,257,3.0,7.0,61,0.00,,,0.01,Wunderground v.1.15,2013-02-03 22:23:00,
2013-02-03 14:29:00,60.7,47.2,29.80,West,275,4.0,5.0,61,0.00,,,0.01,Wunderground v.1.15,2013-02-03 22:29:00,
2013-02-03 14:35:00,60.2,47.1,29.80,WNW,298,4.0,6.0,62,0.00,,,0.01,Wunderground v.1.15,2013-02-03 22:35:00,
2013-02-03 14:41:00,60.5,47.0,29.80,WNW,284,3.0,4.0,61,0.00,,,0.01,Wunderground v.1.15,2013-02-03 22:41:00,
2013-02-03 14:47:00,60.7,47.2,29.80,West,276,3.0,5.0,61,0.00,,,0.01,Wunderground v.1.15,2013-02-03 22:47:00,
2013-02-03 14:53:00,60.7,47.6,29.79,WNW,288,3.0,7.0,62,0.00,,,0.01,Wunderground v.1.15,2013-02-03 22:53:00,
2013-02-03 14:59:00,61.3,48.2,29.79,WNW,295,2.0,4.0,62,0.00,,,0.01,Wunderground v.1.15,2013-02-03 22:59:00,
2013-02-03 15:05:00,61.0,47.9,29.79,NW,311,3.0,5.0,62,0.00,,,0.01,Wunderground v.1.15,2013-02-03 23:05:00,
2013-02-03 15:11:00,61.2,47.6,29.79,WNW,294,3.0,6.0,61,0.00,,,0.01,Wunderground v.1.15,2013-02-03 23:11:00,
2013-02-03 15:17:00,60.7,47.6,29.79,WNW,290,4.0,4.0,62,0.00,,,0.01,Wunderground v.1.15,2013-02-03 23:17:00,
2013-02-03 15:23:00,60.7,48.0,29.79,WNW,286,4.0,6.0,63,0.00,,,0.01,Wunderground v.1.15,2013-02-03 23:23:00,
2013-02-03 15:29:00,60.5,47.8,29.79,WNW,288,4.0,6.0,63,0.00,,,0.01,Wunderground v.1.15,2013-02-03 23:29:00,
2013-02-03 15:35:00,60.7,48.4,29.79,WNW,282,4.0,6.0,64,0.00,,,0.01,Wunderground v.1.15,2013-02-03 23:35:00,
2013-02-03 15:41:00,60.5,48.3,29.79,West,278,4.0,5.0,64,0.00,,,0.01,Wunderground v.1.15,2013-02-03 23:41:00,
2013-02-03 15:47:00,60.4,48.2,29.79,WSW,252,4.0,4.0,64,0.00,,,0.01,Wunderground v.1.15,2013-02-03 23:47:00,
2013-02-03 15:53:00,59.8,48.4,29.79,WSW,252,4.0,5.0,66,0.00,,,0.01,Wunderground v.1.15,2013-02-03 23:53:00,
2013-02-03 15:59:00,59.9,48.1,29.79,WSW,249,3.0,5.0,65,0.00,,,0.01,Wunderground v.1.15,2013-02-03 23:59:00,
2013-02-03 16:05:00,59.9,48.1,29.79,WNW,290,3.0,5.0,65,0.00,,,0.01,Wunderground v.1.15,2013-02-04 00:05:00,
2013-02-03 16:11:00,59.5,48.1,29.79,West,268,3.0,5.0,66,0.00,,,0.01,Wunderground v.1.15,2013-02-04 00:11:00,
2013-02-03 16:17:00,59.3,47.9,29.79,West,278,4.0,4.0,66,0.00,,,0.01,Wunderground v.1.15,2013-02-04 00:17:00,
2013-02-03 16:23:00,59.3,47.9,29.78,West,261,3.0,4.0,66,0.00,,,0.01,Wunderground v.1.15,2013-02-04 00:23:00,
2013-02-03 16:29:00,59.2,48.2,29.78,WNW,298,2.0,3.0,67,0.00,,,0.01,Wunderground v.1.15,2013-02-04 00:29:00,
2013-02-03 16:35:00,59.2,47.8,29.78,West,280,3.0,4.0,66,0.00,,,0.01,Wunderground v.1.15,2013-02-04 00:35:00,
2013-02-03 16:41:00,58.9,47.6,29.78,WSW,250,3.0,5.0,66,0.00,,,0.01,Wunderground v.1.15,2013-02-04 00:41:00,
2013-02-03 16:47:00,58.9,47.6,29.78,West,271,3.0,3.0,66,0.00,,,0.01,Wunderground v.1.15,2013-02-04 00:47:00,
2013-02-03 16:53:00,58.7,47.8,29.78,WNW,294,2.0,4.0,67,0.00,,,0.01,Wunderground v.1.15,2013-02-04 00:53:00,
2013-02-03 16:59:00,57.8,48.1,29.78,WSW,255,2.0,2.0,70,0.00,,,0.01,Wunderground v.1.15,2013-02-04 00:59:00,
2013-02-03 17:05:00,56.5,47.6,29.78,West,262,2.0,4.0,72,0.00,,,0.01,Wunderground v.1.15,2013-02-04 01:05:00,
2013-02-03 17:11:00,55.6,47.4,29.78,SSW,211,1.0,1.0,74,0.00,,,0.01,Wunderground v.1.15,2013-02-04 01:11:00,
2013-02-03 17:17:00,54.8,47.0,29.78,SSW,211,0.0,0.0,75,0.00,,,0.01,Wunderground v.1.15,2013-02-04 01:17:00,
2013-02-03 17:23:00,54.2,46.8,29.78,SSW,213,0.0,0.0,76,0.00,,,0.01,Wunderground v.1.15,2013-02-04 01:23:00,
2013-02-03 17:29:00,53.8,46.8,29.78,SSW,213,0.0,0.0,77,0.00,,,0.01,Wunderground v.1.15,2013-02-04 01:29:00,
2013-02-03 17:35:00,53.3,46.6,29.78,SSW,213,0.0,0.0,78,0.00,,,0.01,Wunderground v.1.15,2013-02-04 01:35:00,
2013-02-03 17:41:00,53.1,46.4,29.78,SSW,213,0.0,0.0,78,0.00,,,0.01,Wunderground v.1.15,2013-02-04 01:41:00,
2013-02-03 17:47:00,52.6,45.9,29.78,SSW,213,0.0,0.0,78,0.00,,,0.01,Wunderground v.1.15,2013-02-04 01:47:00,
2013-02-03 17:53:00,52.0,45.7,29.79,SSW,213,0.0,0.0,79,0.00,,,0.01,Wunderground v.1.15,2013-02-04 01:53:00,
2013-02-03 17:59:00,51.6,45.3,29.79,SSW,213,0.0,0.0,79,0.00,,,0.01,Wunderground v.1.15,2013-02-04 01:59:00,
2013-02-03 18:05:00,51.0,45.4,29.79,SSW,213,0.0,0.0,81,0.00,,,0.01,Wunderground v.1.15,2013-02-04 02:05:00,
2013-02-03 18:11:00,50.5,45.2,29.79,SSW,213,0.0,0.0,82,0.00,,,0.01,Wunderground v.1.15,2013-02-04 02:11:00,
2013-02-03 18:17:00,49.9,44.6,29.79,SSW,213,0.0,0.0,82,0.00,,,0.01,Wunderground v.1.15,2013-02-04 02:17:00,
2013-02-03 18:23:00,49.4,44.1,29.79,SSW,213,0.0,0.0,82,0.00,,,0.01,Wunderground v.1.15,2013-02-04 02:23:00,
2013-02-03 18:29:00,48.8,43.9,29.79,SSW,213,0.0,0.0,83,0.00,,,0.01,Wunderground v.1.15,2013-02-04 02:29:00,
2013-02-03 18:35:00,48.2,43.6,29.79,SSW,213,0.0,0.0,84,0.00,,,0.01,Wunderground v.1.15,2013-02-04 02:35:00,
2013-02-03 18:41:00,47.9,43.6,29.80,SSW,213,0.0,0.0,85,0.00,,,0.01,Wunderground v.1.15,2013-02-04 02:41:00,
2013-02-03 18:47:00,47.4,43.4,29.79,SSW,213,0.0,0.0,86,0.00,,,0.01,Wunderground v.1.15,2013-02-04 02:47:00,
2013-02-03 18:53:00,47.1,43.1,29.79,SSW,213,0.0,0.0,86,0.00,,,0.01,Wunderground v.1.15,2013-02-04 02:53:00,
2013-02-03 18:59:00,47.0,43.3,29.79,SSW,213,0.0,0.0,87,0.00,,,0.01,Wunderground v.1.15,2013-02-04 02:59:00,
2013-02-03 19:05:00,46.7,43.3,29.79,SSW,213,0.0,0.0,88,0.00,,,0.01,Wunderground v.1.15,2013-02-04 03:05:00,
2013-02-03 19:11:00,46.2,42.5,29.79,SSW,213,0.0,0.0,87,0.00,,,0.01,Wunderground v.1.15,2013-02-04 03:11:00,
2013-02-03 19:17:00,45.8,42.4,29.79,SSW,213,0.0,0.0,88,0.00,,,0.01,Wunderground v.1.15,2013-02-04 03:17:00,
2013-02-03 19:23:00,45.4,42.1,29.79,SSW,213,0.0,0.0,88,0.00,,,0.01,Wunderground v.1.15,2013-02-04 03:23:00,
2013-02-03 19:29:00,44.8,41.5,29.79,SSW,213,0.0,0.0,88,0.00,,,0.01,Wunderground v.1.15,2013-02-04 03:29:00,
2013-02-03 19:35:00,44.2,40.9,29.80,SSW,213,0.0,0.0,88,0.00,,,0.01,Wunderground v.1.15,2013-02-04 03:35:00,
2013-02-03 19:41:00,43.6,40.6,29.79,SSW,213,0.0,0.0,89,0.00,,,0.01,Wunderground v.1.15,2013-02-04 03:41:00,
2013-02-03 19:47:00,43.2,40.2,29.79,SSW,213,0.0,0.0,89,0.00,,,0.01,Wunderground v.1.15,2013-02-04 03:47:00,
2013-02-03 19:53:00,42.8,40.1,29.79,SSW,213,0.0,0.0,90,0.00,,,0.01,Wunderground v.1.15,2013-02-04 03:53:00,
2013-02-03 19:59:00,42.9,40.5,29.79,SSW,213,0.0,0.0,91,0.00,,,0.01,Wunderground v.1.15,2013-02-04 03:59:00,
2013-02-03 20:05:00,42.6,40.2,29.79,SSW,213,0.0,0.0,91,0.00,,,0.01,Wunderground v.1.15,2013-02-04 04:05:00,
2013-02-03 20:11:00,42.3,39.9,29.79,SSW,213,0.0,0.0,91,0.00,,,0.01,Wunderground v.1.15,2013-02-04 04:11:00,
2013-02-03 20:14:00,40.8,38.9,29.80,SSW,213,0.0,0.0,93,0.00,,,0.01,Wunderground v.1.15,2013-02-04 04:14:00,
2013-02-03 20:16:00,40.8,38.9,29.80,SSW,213,0.0,0.0,93,0.00,,,0.01,Wunderground v.1.15,2013-02-04 04:16:00,
2013-02-03 20:17:00,41.9,39.5,29.80,SSW,213,0.0,0.0,91,0.00,,,0.01,Wunderground v.1.15,2013-02-04 04:17:00,
2013-02-03 20:18:00,40.6,38.7,29.80,SSW,213,0.0,0.0,93,0.00,,,0.01,Wunderground v.1.15,2013-02-04 04:18:00,
2013-02-03 20:20:00,40.5,38.4,29.80,SSW,213,0.0,0.0,92,0.00,,,0.01,Wunderground v.1.15,2013-02-04 04:20:00,
2013-02-03 20:22:00,40.3,38.2,29.80,SSW,213,0.0,0.0,92,0.00,,,0.01,Wunderground v.1.15,2013-02-04 04:22:00,
2013-02-03 20:23:00,41.9,39.7,29.80,SSW,213,0.0,0.0,92,0.00,,,0.01,Wunderground v.1.15,2013-02-04 04:23:00,
2013-02-03 20:24:00,40.1,38.0,29.80,SSW,213,0.0,0.0,92,0.00,,,0.01,Wunderground v.1.15,2013-02-04 04:24:00,
2013-02-03 20:26:00,40.1,38.2,29.80,SSW,213,0.0,0.0,93,0.00,,,0.01,Wunderground v.1.15,2013-02-04 04:26:00,
2013-02-03 20:28:00,40.1,38.2,29.80,SSW,213,0.0,0.0,93,0.00,,,0.01,Wunderground v.1.15,2013-02-04 04:28:00,
2013-02-03 20:29:00,41.9,39.7,29.80,SSW,213,0.0,0.0,92,0.00,,,0.01,Wunderground v.1.15,2013-02-04 04:29:00,
2013-02-03 20:30:00,40.1,38.2,29.80,SSW,213,0.0,0.0,93,0.00,,,0.01,Wunderground v.1.15,2013-02-04 04:30:00,
2013-02-03 20:32:00,40.1,38.2,29.80,SSW,213,0.0,0.0,93,0.00,,,0.01,Wunderground v.1.15,2013-02-04 04:32:00,
2013-02-03 20:34:00,40.2,38.6,29.80,SSW,213,0.0,0.0,94,0.00,,,0.01,Wunderground v.1.15,2013-02-04 04:34:00,
2013-02-03 20:35:00,41.9,40.0,29.80,SSW,213,0.0,0.0,93,0.00,,,0.01,Wunderground v.1.15,2013-02-04 04:35:00,
2013-02-03 20:36:00,40.3,38.7,29.80,SSW,213,0.0,0.0,94,0.00,,,0.01,Wunderground v.1.15,2013-02-04 04:36:00,
2013-02-03 20:38:00,40.3,38.7,29.80,SSW,213,0.0,0.0,94,0.00,,,0.01,Wunderground v.1.15,2013-02-04 04:38:00,
2013-02-03 20:40:00,40.5,38.9,29.80,SSW,213,0.0,0.0,94,0.00,,,0.01,Wunderground v.1.15,2013-02-04 04:40:00,
2013-02-03 20:41:00,41.9,40.0,29.81,SSW,213,0.0,0.0,93,0.00,,,0.01,Wunderground v.1.15,2013-02-04 04:41:00,
2013-02-03 20:42:00,40.6,39.0,29.80,SSW,213,0.0,0.0,94,0.00,,,0.01,Wunderground v.1.15,2013-02-04 04:42:00,
2013-02-03 20:44:00,40.6,39.0,29.80,SSW,213,0.0,0.0,94,0.00,,,0.01,Wunderground v.1.15,2013-02-04 04:44:00,
2013-02-03 20:46:00,40.6,39.0,29.81,SSW,213,0.0,0.0,94,0.00,,,0.01,Wunderground v.1.15,2013-02-04 04:46:00,
2013-02-03 20:47:00,41.6,39.7,29.81,SSW,213,0.0,0.0,93,0.00,,,0.01,Wunderground v.1.15,2013-02-04 04:47:00,
2013-02-03 20:48:00,40.6,39.0,29.81,SSW,213,0.0,0.0,94,0.00,,,0.01,Wunderground v.1.15,2013-02-04 04:48:00,
2013-02-03 20:50:00,40.5,38.9,29.81,SSW,213,0.0,0.0,94,0.00,,,0.01,Wunderground v.1.15,2013-02-04 04:50:00,
2013-02-03 20:52:00,40.3,38.7,29.81,SSW,213,0.0,0.0,94,0.00,,,0.01,Wunderground v.1.15,2013-02-04 04:52:00,
2013-02-03 20:53:00,41.1,39.0,29.81,SSW,213,0.0,0.0,92,0.00,,,0.01,Wunderground v.1.15,2013-02-04 04:53:00,
2013-02-03 20:54:00,40.2,38.3,29.81,SSW,213,0.0,0.0,93,0.00,,,0.01,Wunderground v.1.15,2013-02-04 04:54:00,
2013-02-03 20:56:00,40.1,38.2,29.81,SSW,213,0.0,0.0,93,0.00,,,0.01,Wunderground v.1.15,2013-02-04 04:56:00,
2013-02-03 20:58:00,39.9,38.3,29.81,SSW,213,0.0,0.0,94,0.00,,,0.01,Wunderground v.1.15,2013-02-04 04:58:00,
2013-02-03 20:59:00,40.8,38.9,29.80,SSW,213,0.0,0.0,93,0.00,,,0.01,Wunderground v.1.15,2013-02-04 04:59:00,
2013-02-03 21:00:00,39.8,38.2,29.81,SSW,213,0.0,0.0,94,0.00,,,0.01,Wunderground v.1.15,2013-02-04 05:00:00,
2013-02-03 21:02:00,39.8,38.2,29.81,SSW,213,0.0,0.0,94,0.00,,,0.01,Wunderground v.1.15,2013-02-04 05:02:00,
2013-02-03 21:04:00,39.6,38.0,29.81,SSW,213,0.0,0.0,94,0.00,,,0.01,Wunderground v.1.15,2013-02-04 05:04:00,
2013-02-03 21:06:00,39.6,38.0,29.81,SSW,213,0.0,0.0,94,0.00,,,0.01,Wunderground v.1.15,2013-02-04 05:06:00,
2013-02-03 21:08:00,39.6,38.0,29.81,SSW,213,0.0,0.0,94,0.00,,,0.01,Wunderground v.1.15,2013-02-04 05:08:00,
2013-02-03 21:10:00,39.6,38.0,29.81,SSW,213,0.0,0.0,94,0.00,,,0.01,Wunderground v.1.15,2013-02-04 05:10:00,
2013-02-03 21:12:00,39.6,38.0,29.80,SSW,213,0.0,0.0,94,0.00,,,0.01,Wunderground v.1.15,2013-02-04 05:12:00,
2013-02-03 21:14:00,39.8,38.2,29.81,SSW,213,0.0,0.0,94,0.00,,,0.01,Wunderground v.1.15,2013-02-04 05:14:00,
2013-02-03 21:16:00,39.8,38.2,29.80,SSW,213,0.0,0.0,94,0.00,,,0.01,Wunderground v.1.15,2013-02-04 05:16:00,
2013-02-03 21:18:00,39.6,38.0,29.80,SSW,213,0.0,0.0,94,0.00,,,0.01,Wunderground v.1.15,2013-02-04 05:18:00,
2013-02-03 21:20:00,39.5,37.9,29.80,SSW,213,0.0,0.0,94,0.00,,,0.01,Wunderground v.1.15,2013-02-04 05:20:00,
2013-02-03 21:22:00,39.3,37.7,29.80,SSW,213,0.0,0.0,94,0.00,,,0.01,Wunderground v.1.15,2013-02-04 05:22:00,
2013-02-03 21:24:00,39.2,37.6,29.80,SSW,213,0.0,0.0,94,0.00,,,0.01,Wunderground v.1.15,2013-02-04 05:24:00,
2013-02-03 21:26:00,39.1,37.5,29.81,SSW,213,0.0,0.0,94,0.00,,,0.01,Wunderground v.1.15,2013-02-04 05:26:00,
2013-02-03 21:28:00,38.9,37.3,29.80,SSW,213,0.0,0.0,94,0.00,,,0.01,Wunderground v.1.15,2013-02-04 05:28:00,
2013-02-03 21:30:00,38.8,37.2,29.80,SSW,213,0.0,0.0,94,0.00,,,0.01,Wunderground v.1.15,2013-02-04 05:30:00,
2013-02-03 21:32:00,38.8,37.2,29.80,SSW,213,0.0,0.0,94,0.00,,,0.01,Wunderground v.1.15,2013-02-04 05:32:00,
2013-02-03 21:34:00,38.8,37.2,29.80,SSW,213,0.0,1.0,94,0.00,,,0.01,Wunderground v.1.15,2013-02-04 05:34:00,
2013-02-03 21:36:00,38.6,37.0,29.81,SSW,213,0.0,1.0,94,0.00,,,0.01,Wunderground v.1.15,2013-02-04 05:36:00,
2013-02-03 21:38:00,38.6,37.0,29.80,SSW,213,0.0,1.0,94,0.00,,,0.01,Wunderground v.1.15,2013-02-04 05:38:00,
2013-02-03 21:40:00,38.5,36.9,29.81,SSW,213,0.0,0.0,94,0.00,,,0.01,Wunderground v.1.15,2013-02-04 05:40:00,
2013-02-03 21:42:00,38.5,36.9,29.81,SSW,213,0.0,0.0,94,0.00,,,0.01,Wunderground v.1.15,2013-02-04 05:42:00,
2013-02-03 21:44:00,38.6,37.3,29.80,SSW,213,0.0,0.0,95,0.00,,,0.01,Wunderground v.1.15,2013-02-04 05:44:00,
2013-02-03 21:46:00,38.8,37.5,29.80,SSW,213,0.0,0.0,95,0.00,,,0.01,Wunderground v.1.15,2013-02-04 05:46:00,
2013-02-03 21:48:00,39.1,37.8,29.80,SSW,213,0.0,0.0,95,0.00,,,0.01,Wunderground v.1.15,2013-02-04 05:48:00,
2013-02-03 21:50:00,39.1,37.8,29.80,SSW,213,0.0,0.0,95,0.00,,,0.01,Wunderground v.1.15,2013-02-04 05:50:00,
2013-02-03 21:52:00,39.2,37.9,29.81,SSW,213,0.0,0.0,95,0.00,,,0.01,Wunderground v.1.15,2013-02-04 05:52:00,
2013-02-03 21:54:00,39.2,37.9,29.80,SSW,213,0.0,0.0,95,0.00,,,0.01,Wunderground v.1.15,2013-02-04 05:54:00,
2013-02-03 21:56:00,39.3,38.0,29.80,SSW,213,0.0,0.0,95,0.00,,,0.01,Wunderground v.1.15,2013-02-04 05:56:00,
2013-02-03 21:58:00,39.3,38.0,29.81,SSW,213,0.0,0.0,95,0.00,,,0.01,Wunderground v.1.15,2013-02-04 05:58:00,
2013-02-03 22:00:00,39.2,37.9,29.81,SSW,213,0.0,0.0,95,0.00,,,0.01,Wunderground v.1.15,2013-02-04 06:00:00,
2013-02-03 22:02:00,39.2,37.9,29.80,SSW,213,0.0,0.0,95,0.00,,,0.01,Wunderground v.1.15,2013-02-04 06:02:00,
2013-02-03 22:04:00,39.2,37.9,29.80,SSW,213,0.0,0.0,95,0.00,,,0.01,Wunderground v.1.15,2013-02-04 06:04:00,
2013-02-03 22:06:00,39.1,37.8,29.80,SSW,213,0.0,0.0,95,0.00,,,0.01,Wunderground v.1.15,2013-02-04 06:06:00,
2013-02-03 22:08:00,38.9,37.3,29.80,SSW,213,0.0,0.0,94,0.00,,,0.01,Wunderground v.1.15,2013-02-04 06:08:00,
2013-02-03 22:10:00,38.8,37.5,29.80,SSW,213,0.0,0.0,95,0.00,,,0.01,Wunderground v.1.15,2013-02-04 06:10:00,
2013-02-03 22:12:00,38.6,37.3,29.80,SSW,213,0.0,0.0,95,0.00,,,0.01,Wunderground v.1.15,2013-02-04 06:12:00,
2013-02-03 22:14:00,38.6,37.3,29.80,SSW,213,0.0,0.0,95,0.00,,,0.01,Wunderground v.1.15,2013-02-04 06:14:00,
2013-02-03 22:16:00,38.5,37.2,29.80,SSW,213,0.0,0.0,95,0.00,,,0.01,Wunderground v.1.15,2013-02-04 06:16:00,
2013-02-03 22:20:00,38.5,37.2,29.80,SSW,213,0.0,0.0,95,0.00,,,0.01,Wunderground v.1.15,2013-02-04 06:20:00,
2013-02-03 22:22:00,38.5,37.2,29.80,SSW,213,0.0,0.0,95,0.00,,,0.01,Wunderground v.1.15,2013-02-04 06:22:00,
2013-02-03 22:24:00,38.5,37.2,29.81,SSW,213,0.0,0.0,95,0.00,,,0.01,Wunderground v.1.15,2013-02-04 06:24:00,
2013-02-03 22:26:00,38.3,37.0,29.81,SSW,213,0.0,0.0,95,0.00,,,0.01,Wunderground v.1.15,2013-02-04 06:26:00,
2013-02-03 22:28:00,38.3,37.0,29.81,SSW,213,0.0,0.0,95,0.00,,,0.01,Wunderground v.1.15,2013-02-04 06:28:00,
2013-02-03 22:30:00,38.3,37.0,29.80,SSW,213,0.0,0.0,95,0.00,,,0.01,Wunderground v.1.15,2013-02-04 06:30:00,
2013-02-03 22:34:00,38.3,37.3,29.80,SSW,213,0.0,0.0,96,0.00,,,0.01,Wunderground v.1.15,2013-02-04 06:34:00,
2013-02-03 22:38:00,38.8,37.8,29.81,SSW,213,0.0,0.0,96,0.00,,,0.01,Wunderground v.1.15,2013-02-04 06:38:00,
2013-02-03 22:40:00,39.1,38.1,29.80,SSW,213,0.0,0.0,96,0.00,,,0.01,Wunderground v.1.15,2013-02-04 06:40:00,
2013-02-03 22:42:00,39.3,38.3,29.80,SSW,213,0.0,0.0,96,0.00,,,0.01,Wunderground v.1.15,2013-02-04 06:42:00,
2013-02-03 22:44:00,39.3,38.3,29.80,SSW,213,0.0,0.0,96,0.00,,,0.01,Wunderground v.1.15,2013-02-04 06:44:00,
2013-02-03 22:50:00,38.8,37.2,29.80,SSW,213,0.0,0.0,94,0.00,,,0.01,Wunderground v.1.15,2013-02-04 06:50:00,
2013-02-03 22:52:00,38.5,37.2,29.80,SSW,213,0.0,1.0,95,0.00,,,0.01,Wunderground v.1.15,2013-02-04 06:52:00,
2013-02-03 22:54:00,38.2,36.6,29.80,SSW,213,0.0,1.0,94,0.00,,,0.01,Wunderground v.1.15,2013-02-04 06:54:00,
2013-02-03 22:56:00,37.9,36.3,29.80,SSW,213,0.0,1.0,94,0.00,,,0.01,Wunderground v.1.15,2013-02-04 06:56:00,
2013-02-03 22:58:00,37.8,36.2,29.80,SSW,213,0.0,1.0,94,0.00,,,0.01,Wunderground v.1.15,2013-02-04 06:58:00,
2013-02-03 23:00:00,37.6,36.3,29.80,SSW,213,0.0,0.0,95,0.00,,,0.01,Wunderground v.1.15,2013-02-04 07:00:00,
2013-02-03 23:02:00,37.5,36.2,29.80,SSW,213,0.0,0.0,95,0.00,,,0.01,Wunderground v.1.15,2013-02-04 07:02:00,
2013-02-03 23:05:00,38.5,37.2,29.80,SSW,213,0.0,0.0,95,0.00,,,0.01,Wunderground v.1.15,2013-02-04 07:05:00,
2013-02-03 23:12:00,37.0,35.7,29.80,SSW,213,0.0,0.0,95,0.00,,,0.00,Wunderground v.1.15,2013-02-04 07:12:00,
2013-02-03 23:16:00,37.0,36.0,29.80,SSW,213,0.0,0.0,96,0.00,,,0.00,Wunderground v.1.15,2013-02-04 07:16:00,
2013-02-03 23:19:00,38.3,37.0,29.80,SSW,213,0.0,0.0,95,0.00,,,0.01,Wunderground v.1.15,2013-02-04 07:19:00,
2013-02-03 23:26:00,37.2,36.2,29.80,SSW,213,0.0,0.0,96,0.00,,,0.00,Wunderground v.1.15,2013-02-04 07:26:00,
2013-02-03 23:33:00,39.3,38.3,29.80,SSW,213,0.0,0.0,96,0.00,,,0.01,Wunderground v.1.15,2013-02-04 07:33:00,
2013-02-03 23:42:00,37.3,36.3,29.80,SSW,213,0.0,0.0,96,0.00,,,0.00,Wunderground v.1.15,2013-02-04 07:42:00,
2013-02-03 23:51:00,37.3,36.0,29.80,SSW,213,0.0,0.0,95,0.00,,,0.01,Wunderground v.1.15,2013-02-04 07:51:00,
2013-02-03 23:57:00,37.0,36.0,29.80,SSW,213,0.0,0.0,96,0.00,,,0.01,Wunderground v.1.15,2013-02-04 07:57:00,